QPF
0.00 0.00 0.00 0.00 0.00 0.00 0.00 0.00 0.00 0.00 0.00 0.00 0.00 0.00 0.00 0.00 0.00 0.00 0.00 0.00 0.00 0.00 0.00 0.00 0.00 0.00 0.00 0.00 0.00 0.00 0.00 0.00 0.00 0.00 0.00 0.00 0.00 0.00 0.00 0.00 0.03 0.03 0.00
0.00 0.00 0.00 0.00 0.00 0.00 0.00 0.00 0.00 0.00 0.00 0.00 0.00 0.00 0.00 0.00 0.00 0.00 0.00 0.00 0.00 0.00 0.00 0.00 0.00 0.00 0.00 0.00 0.00 0.00 0.00 0.00 0.00 0.00 0.00 0.02 0.00 0.00 0.00 0.01 0.05 0.01 0.00
0.00 0.00 0.00 0.00 0.00 0.00 0.00 0.00 0.00 0.00 0.00 0.00 0.00 0.00 0.00 0.00 0.00 0.00 0.00 0.00 0.00 0.00 0.00 0.00 0.00 0.00 0.00 0.00 0.00 0.00 0.00 0.00 0.00 0.00 0.01 0.15 0.03 0.01 0.00 0.00 0.05 0.02 0.00
0.00 0.00 0.00 0.00 0.00 0.00 0.00 0.00 0.00 0.00 0.00 0.00 0.00 0.00 0.00 0.00 0.00 0.00 0.00 0.00 0.00 0.00 0.00 0.00 0.00 0.00 0.00 0.00 0.00 0.00 0.00 0.00 0.00 0.00 0.00 0.20 0.15 0.13 0.07 0.01 0.00 0.00 0.00
0.00 0.00 0.00 0.00 0.00 0.00 0.00 0.00 0.00 0.00 0.00 0.00 0.00 0.00 0.00 0.00 0.00 0.00 0.00 0.00 0.00 0.00 0.00 0.00 0.00 0.00 0.00 0.00 0.00 0.00 0.00 0.00 0.00 0.00 0.01 0.05 0.10 0.09 0.05 0.06 0.00 0.01 0.01
0.00 0.00 0.00 0.00 0.00 0.00 0.00 0.00 0.00 0.00 0.00 0.00 0.00 0.00 0.00 0.00 0.00 0.00 0.00 0.00 0.00 0.00 0.00 0.00 0.00 0.00 0.00 0.00 0.00 0.00 0.00 0.00 0.00 0.00 0.01 0.00 0.05 0.08 0.02 0.00 0.00 0.00 0.01
0.00 0.00 0.00 0.00 0.00 0.00 0.00 0.00 0.00 0.00 0.00 0.00 0.00 0.00 0.00 0.00 0.00 0.00 0.00 0.00 0.00 0.00 0.00 0.00 0.00 0.00 0.00 0.01 0.00 0.00 0.00 0.00 0.00 0.00 0.00 0.00 0.00 0.01 0.00 0.00 0.00 0.01 0.00
0.00 0.00 0.00 0.00 0.00 0.00 0.00 0.00 0.00 0.00 0.00 0.00 0.00 0.00 0.00 0.00 0.00 0.00 0.00 0.00 0.00 0.00 0.00 0.00 0.00 0.00 0.02 0.02 0.01 0.02 0.01 0.00 0.00 0.00 0.00 0.00 0.00 0.00 0.00 0.00 0.00 0.01 0.01
0.00 0.00 0.00 0.00 0.00 0.00 0.00 0.00 0.00 0.00 0.00 0.00 0.00 0.00 0.00 0.00 0.00 0.00 0.00 0.00 0.00 0.00 0.00 0.00 0.00 0.00 0.00 0.00 0.03 0.06 0.01 0.00 0.00 0.00 0.00 0.00 0.00 0.01 0.00 0.00 0.00 0.00 0.00
0.00 0.00 0.00 0.00 0.00 0.00 0.00 0.00 0.00 0.00 0.00 0.00 0.00 0.00 0.00 0.00 0.00 0.00 0.00 0.00 0.00 0.00 0.00 0.00 0.00 0.00 0.04 0.07 0.13 0.09 0.01 0.00 0.00 0.00 0.00 0.01 0.00 0.01 0.00 0.00 0.00 0.00 0.00
0.00 0.00 0.00 0.00 0.00 0.00 0.00 0.00 0.00 0.00 0.00 0.00 0.00 0.00 0.00 0.00 0.00 0.00 0.00 0.00 0.00 0.00 0.00 0.00 0.02 0.02 0.02 0.11 0.13 0.06 0.02 0.00 0.01 0.00 0.01 0.01 0.01 0.00 0.00 0.00 0.00 0.00 0.00
0.00 0.00 0.00 0.00 0.00 0.00 0.00 0.00 0.00 0.00 0.00 0.00 0.00 0.00 0.00 0.00 0.00 0.00 0.00 0.00 0.00 0.00 0.00 0.00 0.04 0.11 0.09 0.13 0.21 0.06 0.03 0.02 0.09 0.05 0.00 0.01 0.01 0.01 0.00 0.00 0.00 0.00 0.00
0.00 0.00 0.00 0.00 0.00 0.00 0.00 0.00 0.00 0.00 0.00 0.00 0.00 0.00 0.00 0.00 0.00 0.00 0.00 0.00 0.00 0.00 0.00 0.00 0.01 0.07 0.13 0.11 0.16 0.02 0.00 0.03 0.07 0.03 0.00 0.00 0.00 0.00 0.00 0.00 0.00 0.00 0.00
0.00 0.00 0.00 0.00 0.00 0.00 0.00 0.00 0.00 0.00 0.00 0.00 0.00 0.00 0.00 0.00 0.00 0.00 0.00 0.00 0.00 0.00 0.00 0.00 0.00 0.00 0.00 0.02 0.06 0.12 0.01 0.00 0.03 0.07 0.01 0.02 0.02 0.00 0.00 0.00 0.00 0.00 0.00
0.00 0.00 0.00 0.00 0.00 0.00 0.00 0.00 0.00 0.00 0.00 0.00 0.00 0.00 0.00 0.00 0.00 0.00 0.00 0.00 0.00 0.00 0.00 0.00 0.00 0.00 0.00 0.01 0.06 0.07 0.02 0.01 0.04 0.02 0.01 0.00 0.00 0.00 0.00 0.00 0.00 0.00 0.00
0.00 0.00 0.00 0.00 0.00 0.00 0.00 0.00 0.00 0.00 0.00 0.00 0.00 0.00 0.00 0.00 0.00 0.00 0.00 0.00 0.00 0.00 0.00 0.00 0.00 0.00 0.00 0.00 0.00 0.00 0.00 0.00 0.02 0.01 0.00 0.00 0.00 0.00 0.00 0.00 0.00 0.00 0.00
0.00 0.00 0.00 0.00 0.00 0.00 0.00 0.00 0.00 0.00 0.00 0.00 0.00 0.00 0.00 0.00 0.00 0.00 0.00 0.00 0.00 0.00 0.00 0.00 0.00 0.00 0.00 0.00 0.00 0.00 0.00 0.00 0.00 0.00 0.00 0.00 0.00 0.00 0.00 0.00 0.00 0.00 0.00
0.00 0.00 0.00 0.00 0.00 0.00 0.00 0.00 0.00 0.00 0.00 0.00 0.00 0.00 0.00 0.00 0.00 0.00 0.00 0.00 0.00 0.00 0.00 0.00 0.00 0.00 0.00 0.00 0.00 0.00 0.00 0.00 0.00 0.00 0.00 0.00 0.00 0.00 0.00 0.00 0.00 0.00 0.00
0.00 0.00 0.00 0.00 0.00 0.00 0.00 0.00 0.00 0.00 0.00 0.00 0.00 0.00 0.00 0.00 0.00 0.00 0.00 0.00 0.00 0.00 0.00 0.00 0.00 0.00 0.00 0.00 0.00 0.00 0.00 0.00 0.00 0.00 0.00 0.00 0.00 0.00 0.00 0.00 0.00 0.00 0.00
0.00 0.00 0.00 0.00 0.00 0.00 0.00 0.00 0.00 0.00 0.00 0.00 0.00 0.00 0.00 0.00 0.00 0.00 0.00 0.00 0.00 0.00 0.00 0.00 0.00 0.00 0.00 0.00 0.00 0.00 0.00 0.00 0.02 0.00 0.00 0.00 0.00 0.00 0.00 0.00 0.00 0.00 0.00
0.00 0.00 0.00 0.00 0.00 0.00 0.00 0.00 0.00 0.00 0.00 0.00 0.00 0.00 0.00 0.00 0.00 0.00 0.00 0.00 0.00 0.00 0.00 0.00 0.00 0.00 0.00 0.00 0.00 0.00 0.00 0.01 0.05 0.02 0.02 0.01 0.00 0.00 0.00 0.00 0.00 0.00 0.00
0.00 0.00 0.00 0.00 0.00 0.00 0.00 0.00 0.00 0.00 0.00 0.00 0.00 0.00 0.00 0.00 0.00 0.00 0.00 0.00 0.00 0.00 0.00 0.00 0.00 0.00 0.00 0.00 0.00 0.00 0.02 0.05 0.12 0.11 0.07 0.09 0.02 0.00 0.00 0.00 0.00 0.00 0.00
0.00 0.00 0.00 0.00 0.00 0.00 0.00 0.00 0.00 0.00 0.00 0.00 0.00 0.00 0.00 0.00 0.00 0.00 0.00 0.00 0.00 0.00 0.00 0.00 0.00 0.00 0.00 0.00 0.00 0.01 0.03 0.02 0.01 0.03 0.02 0.05 0.03 0.03 0.00 0.00 0.00 0.00 0.00
0.00 0.00 0.00 0.00 0.00 0.00 0.00 0.00 0.00 0.00 0.00 0.00 0.00 0.00 0.00 0.00 0.00 0.00 0.00 0.00 0.00 0.00 0.00 0.00 0.00 0.00 0.00 0.00 0.00 0.00 0.00 0.01 0.03 0.01 0.00 0.00 0.01 0.02 0.00 0.01 0.03 0.01 0.00
0.00 0.00 0.00 0.00 0.00 0.00 0.00 0.00 0.00 0.00 0.00 0.00 0.00 0.00 0.00 0.00 0.00 0.00 0.00 0.00 0.00 0.00 0.00 0.00 0.00 0.00 0.00 0.00 0.00 0.01 0.00 0.02 0.05 0.09 0.01 0.00 0.00 0.00 0.00 0.01 0.05 0.06 0.01
0.00 0.00 0.00 0.00 0.00 0.00 0.00 0.00 0.00 0.00 0.00 0.00 0.00 0.00 0.00 0.00 0.00 0.00 0.00 0.00 0.00 0.00 0.00 0.00 0.00 0.00 0.00 0.00 0.01 0.00 0.00 0.02 0.03 0.15 0.13 0.01 0.00 0.00 0.00 0.00 0.01 0.01 0.02
MSLP
1009.91 1011.04 1011.79 1012.21 1012.53 1012.98 1013.36 1013.65 1013.94 1014.19 1014.43 1014.61 1014.85 1015.09 1015.20 1015.32 1015.53 1015.70 1015.77 1015.85 1015.92 1016.03 1016.14 1016.26 1016.30 1016.30 1016.25 1016.25 1016.31 1016.37 1016.35 1016.35 1016.30 1016.35 1016.36 1016.39 1016.45 1016.46 1016.63 1016.79 1017.00 1017.05 1017.27
1009.51 1010.83 1011.76 1012.19 1012.63 1013.08 1013.43 1013.79 1014.09 1014.32 1014.57 1014.81 1015.13 1015.34 1015.46 1015.63 1015.75 1015.85 1015.97 1016.05 1016.21 1016.30 1016.35 1016.40 1016.40 1016.39 1016.36 1016.36 1016.37 1016.41 1016.45 1016.38 1016.35 1016.33 1016.37 1016.43 1016.58 1016.57 1016.66 1016.91 1016.92 1017.23 1017.46
1009.35 1010.67 1011.62 1012.18 1012.62 1013.03 1013.43 1013.85 1014.16 1014.46 1014.76 1015.00 1015.27 1015.49 1015.70 1015.85 1015.97 1016.12 1016.15 1016.23 1016.27 1016.35 1016.39 1016.43 1016.43 1016.43 1016.38 1016.34 1016.33 1016.43 1016.37 1016.32 1016.21 1016.33 1016.35 1016.54 1016.53 1016.89 1016.85 1016.81 1017.09 1017.45 1017.64
1009.08 1010.67 1011.41 1012.21 1012.63 1013.04 1013.49 1013.89 1014.27 1014.57 1014.89 1015.14 1015.38 1015.59 1015.85 1016.04 1016.15 1016.23 1016.25 1016.29 1016.38 1016.45 1016.45 1016.51 1016.53 1016.50 1016.53 1016.59 1016.59 1016.53 1016.49 1016.31 1015.97 1016.00 1015.97 1016.41 1017.03 1017.24 1017.14 1016.67 1017.03 1017.31 1017.58
1009.14 1010.10 1011.35 1012.23 1012.69 1013.06 1013.51 1013.91 1014.31 1014.64 1014.97 1015.26 1015.49 1015.77 1015.98 1016.13 1016.19 1016.26 1016.33 1016.37 1016.38 1016.32 1016.39 1016.44 1016.53 1016.59 1016.64 1016.63 1016.70 1016.64 1016.56 1016.37 1016.00 1015.85 1015.45 1015.77 1016.68 1016.94 1017.01 1016.63 1016.91 1017.19 1017.50
1008.88 1009.70 1011.69 1012.31 1012.78 1013.17 1013.59 1013.98 1014.36 1014.74 1015.08 1015.37 1015.63 1015.88 1016.07 1016.14 1016.20 1016.27 1016.33 1016.30 1016.19 1016.24 1016.21 1016.23 1016.41 1016.41 1016.50 1016.53 1016.51 1016.57 1016.55 1016.39 1016.02 1015.51 1015.09 1015.38 1016.07 1016.56 1016.53 1016.42 1016.72 1017.01 1017.28
1008.52 1010.29 1011.61 1012.37 1012.85 1013.24 1013.62 1014.01 1014.40 1014.84 1015.19 1015.49 1015.76 1015.93 1016.11 1016.16 1016.22 1016.31 1016.20 1016.11 1015.98 1015.98 1016.04 1016.13 1016.30 1016.26 1016.26 1016.39 1016.49 1016.52 1016.53 1016.48 1016.19 1015.41 1014.84 1014.94 1015.12 1015.62 1016.06 1016.17 1016.47 1016.77 1017.04
1008.70 1010.33 1011.63 1012.49 1012.98 1013.38 1013.75 1014.11 1014.48 1014.89 1015.21 1015.55 1015.78 1015.95 1016.11 1016.19 1016.21 1016.21 1016.01 1015.93 1015.93 1015.97 1016.25 1016.21 1016.36 1016.39 1016.15 1016.27 1016.43 1016.57 1016.70 1016.60 1016.11 1015.49 1014.90 1014.77 1014.94 1015.39 1015.82 1015.85 1016.07 1016.36 1016.67
1008.74 1010.08 1011.39 1012.34 1013.03 1013.47 1013.81 1014.17 1014.54 1014.85 1015.17 1015.49 1015.73 1015.92 1016.01 1016.02 1015.99 1015.85 1015.69 1015.77 1015.83 1015.99 1015.81 1015.79 1015.82 1015.88 1015.85 1016.18 1016.26 1016.07 1015.95 1016.15 1015.99 1015.47 1014.87 1014.98 1015.07 1015.32 1015.69 1015.79 1016.04 1016.21 1016.41
1008.40 1009.92 1011.17 1012.09 1012.79 1013.22 1013.76 1014.22 1014.54 1014.83 1015.14 1015.43 1015.67 1015.80 1015.81 1015.66 1015.57 1015.51 1015.46 1015.47 1015.58 1015.64 1015.43 1015.47 1015.37 1015.91 1016.14 1015.87 1015.45 1015.32 1015.47 1015.41 1015.70 1015.50 1014.94 1015.11 1015.03 1015.13 1015.39 1015.78 1015.96 1016.06 1016.14
1007.97 1009.44 1010.61 1011.57 1012.29 1012.71 1013.31 1014.07 1014.50 1014.83 1015.09 1015.31 1015.50 1015.61 1015.51 1015.12 1014.72 1014.96 1015.06 1014.98 1015.19 1015.22 1015.01 1015.31 1015.81 1015.97 1015.83 1015.66 1014.57 1014.52 1014.90 1014.89 1014.76 1014.44 1014.57 1014.84 1014.92 1014.81 1015.16 1015.65 1015.82 1015.85 1015.86
1007.26 1008.74 1009.82 1010.73 1011.48 1012.05 1012.38 1013.53 1014.10 1014.47 1014.76 1014.95 1014.94 1014.95 1014.96 1014.27 1014.07 1014.28 1014.34 1014.57 1014.71 1014.83 1014.67 1015.17 1015.74 1015.10 1014.87 1015.79 1014.88 1014.39 1013.88 1013.58 1014.43 1014.34 1013.86 1014.14 1014.46 1014.49 1014.58 1015.13 1015.54 1015.66 1015.56
1006.58 1007.77 1009.01 1009.76 1010.48 1011.06 1011.41 1012.90 1013.36 1013.56 1013.96 1014.22 1014.37 1014.30 1014.09 1013.73 1013.65 1013.73 1013.76 1013.86 1014.31 1014.49 1014.60 1014.45 1014.82 1015.06 1015.01 1014.86 1014.58 1013.79 1012.79 1013.65 1014.54 1013.67 1013.16 1013.25 1013.76 1014.12 1014.14 1014.63 1015.12 1015.29 1015.29
1006.23 1007.16 1008.17 1009.07 1010.04 1010.56 1010.93 1011.85 1012.43 1012.59 1012.95 1013.25 1013.52 1013.71 1013.78 1013.79 1013.85 1013.75 1013.47 1013.29 1013.73 1013.61 1013.85 1013.67 1013.95 1014.49 1014.02 1013.51 1014.41 1015.34 1013.15 1012.71 1013.74 1013.23 1013.73 1013.48 1013.59 1013.51 1013.59 1013.93 1014.48 1014.76 1014.82
1006.20 1006.95 1007.68 1008.72 1009.75 1010.37 1010.83 1011.24 1011.67 1011.91 1012.18 1012.31 1012.72 1013.22 1013.31 1013.57 1013.55 1013.35 1013.37 1013.47 1013.39 1013.04 1012.77 1012.86 1013.39 1013.49 1013.40 1013.28 1014.53 1014.21 1013.37 1012.78 1012.92 1012.60 1013.17 1013.31 1012.97 1013.13 1013.21 1013.33 1013.79 1014.09 1014.22
1006.23 1006.95 1007.57 1008.83 1009.67 1010.43 1010.85 1011.32 1011.49 1011.45 1011.63 1011.93 1012.07 1012.35 1012.85 1013.15 1013.26 1013.24 1013.39 1013.37 1013.11 1012.69 1012.42 1012.63 1013.02 1013.17 1013.01 1012.57 1013.00 1013.16 1012.42 1012.23 1012.78 1012.83 1012.80 1012.60 1012.48 1012.59 1012.68 1012.76 1013.06 1013.31 1013.47
1006.09 1006.79 1007.50 1008.70 1009.84 1010.55 1010.88 1011.36 1011.55 1011.45 1011.43 1011.69 1011.99 1012.15 1012.56 1012.98 1013.22 1013.25 1013.30 1013.01 1012.64 1012.31 1012.27 1012.29 1012.39 1012.56 1012.73 1012.47 1012.32 1012.27 1012.21 1011.96 1012.16 1012.26 1012.04 1011.98 1011.95 1012.02 1012.07 1012.47 1012.55 1012.57 1012.67
1005.75 1006.63 1007.38 1008.37 1009.56 1010.56 1010.99 1011.43 1011.69 1011.54 1011.27 1011.35 1011.45 1011.60 1012.04 1012.57 1012.91 1013.13 1013.07 1012.68 1012.30 1012.29 1012.19 1012.11 1011.99 1012.08 1012.34 1012.55 1012.52 1012.18 1011.91 1011.72 1011.16 1010.88 1010.73 1010.95 1011.51 1011.36 1011.68 1011.89 1012.13 1012.20 1012.17
1005.48 1006.53 1007.33 1008.20 1009.17 1010.41 1010.99 1011.32 1011.60 1011.30 1011.40 1011.09 1011.03 1011.21 1011.79 1012.18 1012.61 1012.97 1012.80 1012.26 1011.91 1012.19 1012.21 1011.96 1011.83 1012.05 1012.47 1012.55 1012.25 1011.69 1011.34 1011.23 1011.02 1010.41 1010.63 1010.65 1010.96 1011.75 1011.87 1011.54 1011.56 1011.61 1011.75
1005.33 1006.37 1007.29 1008.05 1008.89 1009.87 1010.67 1011.21 1011.23 1011.20 1011.05 1011.03 1011.05 1010.96 1011.19 1011.62 1012.12 1012.46 1012.47 1012.29 1011.91 1012.18 1012.12 1012.31 1012.30 1012.36 1012.59 1012.58 1012.27 1012.02 1011.64 1011.51 1011.56 1011.88 1011.49 1009.95 1009.67 1010.53 1010.78 1010.89 1011.37 1011.17 1011.22
1005.08 1006.14 1007.11 1007.86 1008.56 1009.38 1010.05 1010.66 1010.78 1010.73 1010.76 1010.80 1010.83 1010.78 1010.88 1011.18 1011.63 1011.91 1012.31 1012.15 1012.01 1012.07 1011.95 1011.89 1012.16 1012.44 1012.46 1012.11 1012.06 1012.04 1011.70 1011.99 1011.49 1010.80 1010.56 1010.97 1010.81 1009.15 1009.24 1009.92 1010.40 1010.41 1010.35
1004.60 1005.77 1006.80 1007.53 1008.25 1008.87 1009.48 1009.95 1010.21 1010.28 1010.19 1010.31 1010.35 1010.30 1010.57 1010.95 1011.28 1011.47 1011.87 1011.95 1011.87 1011.86 1011.93 1011.89 1011.97 1012.21 1012.29 1011.92 1012.03 1011.99 1012.25 1012.65 1012.21 1012.04 1011.33 1011.91 1010.37 1009.52 1009.54 1009.72 1009.21 1009.44 1009.52
1004.03 1005.30 1006.38 1007.24 1007.87 1008.53 1009.01 1009.48 1009.66 1009.79 1009.87 1009.85 1009.92 1010.12 1010.49 1010.77 1011.06 1011.29 1011.39 1011.71 1011.81 1011.89 1011.87 1011.79 1011.76 1011.92 1012.05 1011.89 1011.74 1011.83 1011.89 1012.03 1011.59 1011.60 1011.29 1010.53 1009.67 1010.07 1010.43 1010.17 1008.72 1008.85 1008.45
1003.27 1004.62 1005.85 1006.90 1007.52 1008.29 1008.82 1008.94 1009.26 1009.47 1009.49 1009.51 1009.54 1009.70 1009.90 1010.13 1010.53 1010.80 1010.99 1011.38 1011.61 1011.85 1011.85 1011.79 1011.68 1011.50 1011.59 1011.68 1011.42 1010.97 1011.18 1011.27 1011.31 1010.96 1010.59 1010.23 1009.99 1009.73 1009.62 1009.29 1010.30 1010.43 1010.87
1002.48 1003.66 1004.91 1006.17 1006.91 1007.57 1008.27 1008.59 1008.74 1008.99 1009.08 1008.91 1009.00 1009.06 1009.37 1009.64 1010.06 1010.25 1010.45 1010.87 1011.19 1011.45 1011.51 1011.44 1011.37 1011.38 1011.32 1011.22 1011.20 1011.11 1010.90 1010.83 1010.99 1010.81 1010.21 1009.87 1009.14 1008.14 1007.55 1007.67 1008.19 1010.01 1008.51
1001.61 1002.63 1003.83 1005.11 1006.04 1006.72 1007.42 1007.97 1008.38 1008.52 1008.78 1008.66 1008.66 1008.60 1008.83 1009.05 1009.40 1009.59 1009.75 1010.13 1010.43 1010.69 1010.90 1011.00 1011.12 1011.15 1011.11 1011.01 1010.89 1010.80 1010.70 1010.60 1010.43 1010.80 1010.44 1009.71 1008.78 1007.49 1006.83 1006.44 1007.16 1007.32 1007.47
Thickness
5807 5800 5794 5792 5790 5787 5785 5782 5781 5779 5777 5777 5776 5774 5773 5773 5771 5769 5769 5768 5768 5767 5766 5765 5764 5764 5765 5765 5765 5764 5764 5764 5764 5764 5764 5765 5765 5764 5763 5762 5762 5761 5760
5815 5803 5797 5794 5791 5788 5786 5783 5781 5779 5778 5776 5774 5773 5772 5772 5770 5770 5769 5768 5767 5766 5765 5764 5764 5765 5766 5766 5765 5765 5764 5766 5766 5766 5766 5764 5763 5763 5761 5759 5760 5759 5758
5817 5807 5800 5795 5793 5791 5788 5784 5782 5780 5778 5777 5775 5773 5772 5771 5770 5769 5769 5769 5768 5767 5767 5766 5766 5766 5767 5767 5767 5767 5767 5768 5769 5768 5767 5764 5762 5759 5759 5759 5758 5755 5755
5822 5809 5803 5797 5795 5793 5790 5786 5784 5781 5779 5778 5776 5774 5772 5770 5770 5770 5771 5770 5769 5769 5769 5768 5768 5767 5768 5767 5768 5769 5768 5770 5772 5771 5772 5768 5757 5753 5757 5762 5758 5756 5755
5824 5816 5805 5799 5796 5795 5791 5788 5785 5782 5781 5779 5777 5775 5774 5773 5772 5773 5772 5772 5772 5773 5772 5771 5770 5770 5770 5770 5768 5769 5769 5771 5774 5775 5779 5773 5762 5759 5759 5764 5760 5758 5756
5829 5821 5805 5800 5797 5795 5793 5790 5787 5784 5782 5781 5779 5777 5775 5775 5775 5775 5775 5775 5777 5775 5776 5776 5775 5774 5773 5773 5773 5771 5770 5771 5774 5779 5781 5780 5770 5765 5765 5766 5762 5759 5758
5834 5819 5809 5802 5799 5797 5795 5792 5788 5785 5783 5782 5780 5779 5778 5778 5777 5777 5778 5779 5779 5780 5780 5778 5775 5776 5775 5774 5773 5773 5772 5771 5772 5779 5784 5782 5781 5775 5770 5769 5765 5762 5759
5834 5822 5811 5804 5801 5798 5796 5793 5791 5788 5786 5784 5782 5781 5780 5780 5780 5780 5782 5782 5782 5782 5777 5776 5772 5770 5774 5774 5772 5769 5767 5767 5772 5777 5781 5782 5782 5777 5773 5772 5770 5767 5764
5837 5826 5815 5808 5803 5800 5798 5795 5793 5791 5789 5787 5785 5784 5784 5784 5785 5786 5787 5786 5784 5782 5782 5782 5780 5780 5782 5778 5774 5772 5775 5771 5774 5780 5782 5781 5779 5778 5775 5773 5771 5769 5766
5842 5829 5819 5812 5807 5804 5801 5798 5796 5794 5792 5790 5788 5787 5788 5790 5791 5792 5792 5791 5789 5788 5790 5789 5791 5784 5780 5784 5786 5783 5779 5780 5775 5780 5784 5778 5777 5778 5778 5775 5772 5771 5769
5844 5834 5826 5818 5813 5810 5806 5801 5798 5796 5794 5793 5791 5791 5792 5796 5800 5798 5797 5797 5795 5793 5796 5792 5786 5780 5785 5782 5796 5794 5785 5784 5784 5789 5786 5781 5777 5781 5779 5776 5774 5773 5772
5844 5837 5833 5827 5821 5817 5815 5807 5803 5800 5798 5797 5798 5799 5799 5805 5807 5805 5805 5803 5801 5799 5801 5794 5785 5795 5795 5785 5783 5797 5798 5798 5789 5792 5793 5792 5784 5784 5785 5779 5775 5773 5773
5854 5847 5840 5836 5830 5826 5824 5813 5810 5809 5806 5805 5805 5805 5807 5811 5811 5811 5811 5810 5805 5803 5802 5803 5795 5795 5796 5792 5797 5801 5812 5799 5791 5799 5807 5803 5794 5787 5788 5783 5779 5775 5773
5856 5852 5848 5843 5836 5832 5830 5823 5819 5819 5816 5814 5813 5812 5812 5812 5812 5813 5815 5816 5812 5812 5809 5811 5808 5801 5804 5809 5794 5786 5804 5811 5804 5799 5802 5800 5798 5795 5792 5789 5783 5778 5776
5855 5854 5852 5847 5839 5836 5834 5830 5827 5826 5825 5824 5821 5818 5817 5816 5817 5818 5817 5816 5816 5818 5819 5818 5813 5811 5810 5810 5794 5794 5804 5814 5811 5814 5808 5801 5803 5799 5796 5794 5789 5784 5781
5858 5854 5855 5847 5843 5839 5835 5832 5831 5832 5831 5829 5829 5827 5823 5821 5820 5821 5821 5820 5821 5823 5824 5822 5817 5818 5818 5821 5817 5811 5820 5818 5812 5814 5812 5808 5810 5805 5803 5801 5796 5792 5788
5860 5859 5855 5849 5843 5838 5837 5834 5833 5834 5835 5834 5832 5830 5828 5825 5823 5823 5824 5826 5828 5829 5828 5827 5825 5822 5822 5824 5823 5822 5817 5817 5817 5815 5814 5813 5812 5810 5810 5806 5802 5799 5796
5865 5859 5858 5854 5846 5839 5837 5835 5834 5835 5838 5839 5839 5838 5834 5830 5827 5825 5827 5830 5832 5831 5831 5832 5832 5829 5825 5822 5821 5822 5822 5823 5824 5825 5824 5821 5814 5816 5814 5810 5806 5804 5802
5868 5861 5857 5855 5849 5841 5839 5838 5837 5839 5840 5844 5845 5844 5839 5835 5831 5828 5831 5835 5836 5833 5833 5834 5833 5830 5823 5822 5823 5826 5831 5829 5826 5828 5826 5822 5818 5810 5810 5811 5810 5808 5805
5869 5864 5859 5855 5852 5847 5842 5839 5841 5842 5845 5845 5846 5847 5845 5841 5837 5834 5833 5835 5836 5833 5833 5831 5828 5828 5824 5822 5823 5822 5826 5827 5826 5822 5819 5826 5829 5819 5818 5817 5809 5809 5808
5870 5863 5858 5855 5854 5850 5845 5841 5841 5842 5846 5848 5850 5850 5848 5845 5841 5838 5835 5835 5836 5833 5834 5836 5830 5825 5822 5827 5820 5817 5822 5822 5825 5826 5825 5816 5812 5831 5829 5822 5817 5812 5812
5872 5866 5861 5859 5857 5856 5853 5850 5850 5850 5852 5853 5854 5854 5851 5848 5844 5841 5839 5837 5838 5836 5835 5833 5830 5823 5822 5826 5815 5813 5797 5803 5811 5811 5813 5800 5790 5818 5822 5818 5823 5818 5817
5876 5870 5865 5863 5862 5860 5860 5857 5856 5856 5855 5854 5854 5854 5852 5849 5845 5843 5842 5840 5838 5836 5832 5833 5831 5826 5817 5822 5823 5811 5799 5791 5803 5804 5801 5810 5815 5811 5808 5811 5825 5816 5822
5885 5881 5874 5868 5866 5863 5862 5859 5855 5851 5848 5853 5855 5857 5856 5854 5850 5847 5845 5842 5839 5836 5832 5831 5831 5829 5825 5815 5819 5821 5817 5812 5796 5797 5809 5807 5808 5810 5810 5810 5802 5784 5795
5894 5888 5883 5875 5872 5869 5865 5863 5860 5856 5858 5861 5860 5859 5857 5857 5854 5850 5848 5845 5841 5837 5835 5833 5831 5828 5826 5820 5816 5814 5813 5810 5806 5796 5796 5805 5815 5822 5826 5821 5814 5792 5809
5900 5896 5890 5881 5876 5875 5871 5867 5863 5860 5857 5858 5859 5859 5859 5859 5857 5854 5852 5848 5845 5841 5837 5834 5831 5827 5824 5822 5819 5815 5810 5803 5800 5793 5791 5798 5804 5818 5825 5825 5811 5814 5810